| time (UTC) | temp C | wind direction | speed KPH | gust KPH | rain 1hr cm | rain 24hr cm | rain mn cm | humidity % | barometer mb |
| 20260503010204 | 7 | 254 | 3.2 | 9.7 | 0.00 | 0.00 | 0.00 | 51 | 1016.6 |
| 20260503005704 | 7 | 212 | 3.2 | 14.5 | 0.00 | 0.00 | 0.00 | 52 | 1016.5 |
| 20260503005204 | 7 | 273 | 3.2 | 14.5 | 0.00 | 0.00 | 0.00 | 52 | 1016.5 |
| 20260503004704 | 7 | 268 | 1.6 | 8.0 | 0.00 | 0.00 | 0.00 | 51 | 1016.4 |
| 20260503004206 | 7 | 278 | 3.2 | 9.7 | 0.00 | 0.00 | 0.00 | 50 | 1016.4 |
| 20260503003706 | 8 | 220 | 3.2 | 12.9 | 0.00 | 0.00 | 0.00 | 50 | 1016.4 |
| 20260503003204 | 8 | 248 | 8.0 | 12.9 | 0.00 | 0.00 | 0.00 | 48 | 1016.4 |
| 20260503002704 | 8 | 243 | 6.4 | 12.9 | 0.00 | 0.00 | 0.00 | 48 | 1016.4 |
| 20260503002204 | 8 | 275 | 6.4 | 14.5 | 0.00 | 0.00 | 0.00 | 47 | 1016.4 |
| 20260503001704 | 9 | 248 | 8.0 | 16.1 | 0.00 | 0.00 | 0.00 | 45 | 1016.4 |
| 20260503001204 | 10 | 291 | 11.3 | 19.3 | 0.00 | 0.00 | 0.00 | 42 | 1016.3 |
| 20260503000204 | 10 | 309 | 8.0 | 16.1 | 0.00 | 0.00 | 0.00 | 35 | 1016.3 |
| 20260502235704 | 10 | 295 | 8.0 | 16.1 | 0.00 | 0.00 | 0.00 | 35 | 1016.3 |
| 20260502235204 | 10 | 303 | 4.8 | 16.1 | 0.00 | 0.00 | 0.00 | 36 | 1016.4 |
| 20260502234706 | 10 | 300 | 12.9 | 24.1 | 0.00 | 0.00 | 0.00 | 35 | 1016.4 |
| 20260502233707 | 10 | 290 | 11.3 | 19.3 | 0.00 | 0.00 | 0.00 | 34 | 1016.3 |
| 20260502232707 | 10 | 300 | 4.8 | 14.5 | 0.00 | 0.00 | 0.00 | 34 | 1016.4 |
| 20260502232207 | 10 | 311 | 8.0 | 22.5 | 0.00 | 0.00 | 0.00 | 34 | 1016.4 |
| 20260502231706 | 10 | 299 | 8.0 | 20.9 | 0.00 | 0.00 | 0.00 | 35 | 1016.5 |
| 20260502231206 | 10 | 309 | 6.4 | 16.1 | 0.00 | 0.00 | 0.00 | 34 | 1016.5 |
| 20260502230207 | 10 | 289 | 9.7 | 19.3 | 0.00 | 0.00 | 0.00 | 36 | 1016.5 |
| 20260502225707 | 10 | 264 | 8.0 | 19.3 | 0.00 | 0.00 | 0.00 | 38 | 1016.5 |
| 20260502225206 | 10 | 288 | 8.0 | 20.9 | 0.00 | 0.00 | 0.00 | 39 | 1016.5 |
| 20260502224706 | 10 | 297 | 11.3 | 20.9 | 0.00 | 0.00 | 0.00 | 38 | 1016.5 |
| 20260502223707 | 10 | 294 | 14.5 | 20.9 | 0.00 | 0.00 | 0.00 | 39 | 1016.5 |
| 20260502223206 | 10 | 302 | 14.5 | 27.4 | 0.00 | 0.00 | 0.00 | 39 | 1016.5 |
| 20260502220707 | 10 | 273 | 8.0 | 19.3 | 0.00 | 0.00 | 0.00 | 41 | 1016.6 |
| 20260502220206 | 10 | 291 | 11.3 | 25.7 | 0.00 | 0.00 | 0.00 | 40 | 1016.6 |
| 20260502215707 | 10 | 286 | 11.3 | 24.1 | 0.00 | 0.00 | 0.00 | 42 | 1016.5 |
| 20260502215206 | 10 | 308 | 4.8 | 22.5 | 0.00 | 0.00 | 0.00 | 43 | 1016.6 |
| 20260502214706 | 10 | 233 | 6.4 | 20.9 | 0.00 | 0.00 | 0.00 | 42 | 1016.7 |
| 20260502214206 | 10 | 256 | 9.7 | 20.9 | 0.00 | 0.00 | 0.00 | 44 | 1016.7 |
| 20260502213706 | 10 | 297 | 12.9 | 20.9 | 0.00 | 0.00 | 0.00 | 43 | 1016.5 |
| 20260502213207 | 10 | 265 | 9.7 | 19.3 | 0.00 | 0.00 | 0.00 | 43 | 1016.6 |
| 20260502212706 | 10 | 289 | 9.7 | 16.1 | 0.00 | 0.00 | 0.00 | 44 | 1016.6 |
| 20260502212206 | 10 | 215 | 9.7 | 22.5 | 0.00 | 0.00 | 0.00 | 44 | 1016.5 |
| 20260502211707 | 10 | 286 | 9.7 | 20.9 | 0.00 | 0.00 | 0.00 | 44 | 1016.6 |
| 20260502211206 | 10 | 247 | 12.9 | 20.9 | 0.00 | 0.00 | 0.00 | 45 | 1016.6 |
| 20260502210707 | 10 | 271 | 11.3 | 20.9 | 0.00 | 0.00 | 0.00 | 44 | 1016.7 |
| 20260502210206 | 10 | 302 | 9.7 | 19.3 | 0.00 | 0.00 | 0.00 | 45 | 1016.8 |
| 20260502205706 | 10 | 248 | 9.7 | 22.5 | 0.00 | 0.00 | 0.00 | 44 | 1016.9 |
| 20260502205206 | 10 | 229 | 11.3 | 22.5 | 0.00 | 0.00 | 0.00 | 44 | 1016.8 |
| 20260502204206 | 9 | 230 | 8.0 | 25.7 | 0.00 | 0.00 | 0.00 | 46 | 1017.1 |
| 20260502203706 | 10 | 289 | 12.9 | 19.3 | 0.00 | 0.00 | 0.00 | 46 | 1017.0 |
| 20260502203206 | 9 | 219 | 11.3 | 22.5 | 0.00 | 0.00 | 0.00 | 45 | 1017.0 |
| 20260502202706 | 9 | 301 | 14.5 | 24.1 | 0.00 | 0.00 | 0.00 | 47 | 1017.1 |
| 20260502201206 | 10 | 296 | 16.1 | 24.1 | 0.00 | 0.00 | 0.00 | 44 | 1017.1 |
| 20260502200706 | 10 | 283 | 9.7 | 22.5 | 0.00 | 0.00 | 0.00 | 43 | 1017.3 |
| 20260502195706 | 9 | 252 | 9.7 | 19.3 | 0.00 | 0.00 | 0.00 | 46 | 1017.3 |
| 20260502195206 | 8 | 278 | 8.0 | 19.3 | 0.00 | 0.00 | 0.00 | 45 | 1017.4 |
| 20260502194707 | 8 | 272 | 8.0 | 14.5 | 0.00 | 0.00 | 0.00 | 47 | 1017.6 |
| 20260502194206 | 8 | 212 | 6.4 | 12.9 | 0.00 | 0.00 | 0.00 | 46 | 1017.6 |
| 20260502193706 | 8 | 225 | 6.4 | 11.3 | 0.00 | 0.00 | 0.00 | 46 | 1017.7 |
| 20260502192706 | 8 | 297 | 12.9 | 20.9 | 0.00 | 0.00 | 0.00 | 49 | 1017.9 |
| 20260502192206 | 8 | 291 | 9.7 | 16.1 | 0.00 | 0.00 | 0.00 | 49 | 1017.9 |
| 20260502191206 | 8 | 278 | 8.0 | 16.1 | 0.00 | 0.00 | 0.00 | 48 | 1018.0 |
| 20260502190706 | 8 | 250 | 6.4 | 14.5 | 0.00 | 0.00 | 0.00 | 49 | 1018.0 |
| 20260502190206 | 8 | 249 | 6.4 | 16.1 | 0.00 | 0.00 | 0.00 | 47 | 1018.1 |
| 20260502185706 | 8 | 295 | 9.7 | 16.1 | 0.00 | 0.00 | 0.00 | 48 | 1018.1 |
| 20260502185206 | 8 | 224 | 8.0 | 20.9 | 0.00 | 0.00 | 0.00 | 49 | 1018.1 |
| 20260502184706 | 8 | 288 | 14.5 | 24.1 | 0.00 | 0.00 | 0.00 | 49 | 1018.1 |
| 20260502184206 | 8 | 232 | 8.0 | 16.1 | 0.00 | 0.00 | 0.00 | 49 | 1018.2 |
| 20260502183706 | 8 | 232 | 9.7 | 16.1 | 0.00 | 0.00 | 0.00 | 49 | 1018.2 |
| 20260502182706 | 8 | 276 | 8.0 | 16.1 | 0.00 | 0.00 | 0.00 | 48 | 1018.3 |
| 20260502182206 | 8 | 326 | 8.0 | 19.3 | 0.00 | 0.00 | 0.00 | 50 | 1018.3 |
| 20260502181206 | 8 | 320 | 9.7 | 14.5 | 0.00 | 0.00 | 0.00 | 46 | 1018.3 |
| 20260502180706 | 8 | 233 | 4.8 | 19.3 | 0.00 | 0.00 | 0.00 | 48 | 1018.4 |
| 20260502180206 | 8 | 314 | 14.5 | 20.9 | 0.00 | 0.00 | 0.00 | 47 | 1018.5 |
| 20260502170206 | 7 | 290 | 8.0 | 22.5 | 0.00 | 0.00 | 0.00 | 52 | 1018.9 |
| 20260502164206 | 6 | 285 | 11.3 | 19.3 | 0.00 | 0.00 | 0.00 | 52 | 1019.1 |
| 20260502163706 | 6 | 338 | 9.7 | 16.1 | 0.00 | 0.00 | 0.00 | 53 | 1019.1 |
| 20260502162205 | 6 | 288 | 4.8 | 12.9 | 0.00 | 0.00 | 0.00 | 54 | 1019.2 |
| 20260502161205 | 6 | 300 | 9.7 | 16.1 | 0.00 | 0.00 | 0.00 | 56 | 1019.3 |
| 20260502160706 | 6 | 323 | 8.0 | 14.5 | 0.00 | 0.00 | 0.00 | 55 | 1019.3 |
| 20260502160206 | 6 | 275 | 8.0 | 16.1 | 0.00 | 0.00 | 0.00 | 54 | 1019.3 |
| 20260502152205 | 6 | 298 | 9.7 | 16.1 | 0.00 | 0.00 | 0.00 | 55 | 1019.4 |
| 20260502151706 | 6 | 274 | 8.0 | 14.5 | 0.00 | 0.00 | 0.00 | 53 | 1019.4 |
| 20260502151205 | 6 | 303 | 11.3 | 24.1 | 0.00 | 0.00 | 0.00 | 54 | 1019.4 |
| 20260502150705 | 5 | 9 | 6.4 | 16.1 | 0.00 | 0.00 | 0.00 | 56 | 1019.5 |
| 20260502130705 | 3 | 353 | 4.8 | 9.7 | 0.00 | 0.00 | 0.00 | 78 | 1019.8 |
| 20260502130206 | 3 | 4 | 4.8 | 11.3 | 0.00 | 0.00 | 0.00 | 79 | 1019.8 |
| 20260502123705 | 2 | 310 | 6.4 | 11.3 | 0.00 | 0.00 | 0.00 | 80 | 1019.8 |
| 20260502122705 | 2 | 321 | 3.2 | 9.7 | 0.00 | 0.00 | 0.00 | 83 | 1019.9 |
| 20260502122205 | 2 | 296 | 4.8 | 8.0 | 0.00 | 0.00 | 0.00 | 83 | 1019.9 |
| 20260502121706 | 1 | 324 | 1.6 | 8.0 | 0.00 | 0.00 | 0.00 | 85 | 1019.9 |
| 20260502121205 | 1 | 325 | 4.8 | 8.0 | 0.00 | 0.00 | 0.00 | 85 | 1019.9 |
| 20260502120205 | 1 | 291 | 1.6 | 8.0 | 0.00 | 0.00 | 0.00 | 85 | 1019.8 |
| 20260502115705 | 1 | 313 | 3.2 | 8.0 | 0.00 | 0.00 | 0.00 | 85 | 1019.8 |
| 20260502115205 | 1 | 18 | 1.6 | 4.8 | 0.00 | 0.00 | 0.00 | 84 | 1019.8 |
| 20260502114705 | 1 | 36 | 0.0 | 3.2 | 0.00 | 0.00 | 0.00 | 85 | 1019.8 |
| 20260502113705 | 0 | 56 | 1.6 | 3.2 | 0.00 | 0.00 | 0.00 | 87 | 1019.7 |
| 20260502113205 | 0 | 112 | 0.0 | 1.6 | 0.00 | 0.00 | 0.00 | 88 | 1019.7 |
| 20260502111705 | -1 | 22 | 0.0 | 3.2 | 0.00 | 0.00 | 0.00 | 96 | 1019.6 |
| 20260502111205 | -1 | 79 | 0.0 | 1.6 | 0.00 | 0.00 | 0.00 | 96 | 1019.6 |
| 20260502110705 | -2 | 58 | 1.6 | 3.2 | 0.00 | 0.00 | 0.00 | 96 | 1019.6 |
| 20260502110205 | -2 | 44 | 0.0 | 1.6 | 0.00 | 0.00 | 0.00 | 96 | 1019.6 |
| 20260502105706 | -2 | 76 | 0.0 | 1.6 | 0.00 | 0.00 | 0.00 | 96 | 1019.5 |
| 20260502105205 | -2 | 98 | 0.0 | 3.2 | 0.00 | 0.00 | 0.00 | 96 | 1019.5 |
| 20260502104705 | -2 | 142 | 0.0 | 3.2 | 0.00 | 0.00 | 0.00 | 96 | 1019.5 |
| 20260502104205 | -2 | 124 | 0.0 | 1.6 | 0.00 | 0.00 | 0.00 | 96 | 1019.5 |
| 20260502103705 | -2 | 137 | 0.0 | 1.6 | 0.00 | 0.00 | 0.00 | 95 | 1019.5 |
| 20260502103205 | -2 | 142 | 0.0 | 1.6 | 0.00 | 0.00 | 0.00 | 95 | 1019.5 |
| 20260502102705 | -2 | 140 | 0.0 | 1.6 | 0.00 | 0.00 | 0.00 | 95 | 1019.4 |
| 20260502101705 | -2 | 158 | 0.0 | 1.6 | 0.00 | 0.00 | 0.00 | 95 | 1019.3 |
| 20260502101205 | -2 | 130 | 0.0 | 1.6 | 0.00 | 0.00 | 0.00 | 95 | 1019.3 |
| 20260502100706 | -2 | 123 | 0.0 | 1.6 | 0.00 | 0.00 | 0.00 | 95 | 1019.3 |
| 20260502100205 | -2 | 178 | 0.0 | 1.6 | 0.00 | 0.00 | 0.00 | 95 | 1019.3 |
| 20260502090706 | -1 | 289 | 0.0 | 1.6 | 0.00 | 0.00 | 0.00 | 91 | 1019.0 |
| 20260502090205 | -1 | 339 | 0.0 | 1.6 | 0.00 | 0.00 | 0.00 | 91 | 1018.9 |
| 20260502070705 | 1 | 3 | 0.0 | 3.2 | 0.00 | 0.00 | 0.00 | 82 | 1018.9 |
| 20260502070205 | 1 | 8 | 0.0 | 1.6 | 0.00 | 0.00 | 0.00 | 81 | 1018.9 |
| 20260502065706 | 1 | 26 | 1.6 | 3.2 | 0.00 | 0.00 | 0.00 | 81 | 1018.9 |
| 20260502065205 | 1 | 348 | 0.0 | 1.6 | 0.00 | 0.00 | 0.00 | 82 | 1018.9 |
| 20260502064705 | 1 | 70 | 0.0 | 3.2 | 0.00 | 0.00 | 0.00 | 83 | 1018.9 |
| 20260502064204 | 1 | 120 | 1.6 | 3.2 | 0.00 | 0.00 | 0.00 | 81 | 1019.0 |
| 20260502063704 | 1 | 242 | 0.0 | 1.6 | 0.00 | 0.00 | 0.00 | 81 | 1019.1 |
| 20260502062704 | 1 | 240 | 0.0 | 1.6 | 0.00 | 0.00 | 0.00 | 81 | 1019.1 |
| 20260502062205 | 1 | 172 | 0.0 | 1.6 | 0.00 | 0.00 | 0.00 | 80 | 1019.1 |
| 20260502061705 | 1 | 142 | 0.0 | 1.6 | 0.00 | 0.00 | 0.00 | 80 | 1019.1 |
| 20260502061205 | 1 | 255 | 1.6 | 3.2 | 0.00 | 0.00 | 0.00 | 78 | 1019.1 |
| 20260502060704 | 2 | 177 | 0.0 | 1.6 | 0.00 | 0.00 | 0.00 | 80 | 1019.1 |
| 20260502060204 | 2 | 158 | 0.0 | 3.2 | 0.00 | 0.00 | 0.00 | 77 | 1019.0 |
| 20260502055705 | 2 | 313 | 0.0 | 3.2 | 0.00 | 0.00 | 0.00 | 76 | 1019.1 |
| 20260502055205 | 2 | 317 | 1.6 | 4.8 | 0.00 | 0.00 | 0.00 | 76 | 1019.1 |
| 20260502053704 | 2 | 314 | 1.6 | 3.2 | 0.00 | 0.00 | 0.00 | 76 | 1019.0 |
| 20260502053204 | 2 | 6 | 0.0 | 3.2 | 0.00 | 0.00 | 0.00 | 76 | 1019.0 |
| 20260502052704 | 2 | 326 | 1.6 | 3.2 | 0.00 | 0.00 | 0.00 | 75 | 1019.0 |
| 20260502052205 | 2 | 296 | 1.6 | 3.2 | 0.00 | 0.00 | 0.00 | 75 | 1019.0 |
| 20260502051705 | 2 | 316 | 1.6 | 3.2 | 0.00 | 0.00 | 0.00 | 74 | 1018.9 |
| 20260502051205 | 2 | 310 | 3.2 | 4.8 | 0.00 | 0.00 | 0.00 | 74 | 1018.9 |
| 20260502050704 | 2 | 2 | 1.6 | 4.8 | 0.00 | 0.00 | 0.00 | 74 | 1018.9 |
| 20260502045705 | 2 | 324 | 1.6 | 3.2 | 0.00 | 0.00 | 0.00 | 74 | 1018.8 |
| 20260502044704 | 2 | 321 | 1.6 | 3.2 | 0.00 | 0.00 | 0.00 | 73 | 1018.8 |
| 20260502044205 | 2 | 309 | 1.6 | 4.8 | 0.00 | 0.00 | 0.00 | 73 | 1018.8 |
| 20260502043705 | 2 | 322 | 1.6 | 8.0 | 0.00 | 0.00 | 0.00 | 72 | 1018.8 |
| 20260502043205 | 2 | 319 | 3.2 | 8.0 | 0.00 | 0.00 | 0.00 | 72 | 1018.7 |
| 20260502042205 | 2 | 329 | 1.6 | 3.2 | 0.00 | 0.00 | 0.00 | 70 | 1018.7 |
| 20260502041705 | 2 | 27 | 1.6 | 8.0 | 0.00 | 0.00 | 0.00 | 70 | 1018.7 |
| 20260502041204 | 2 | 13 | 3.2 | 8.0 | 0.00 | 0.00 | 0.00 | 69 | 1018.7 |
| 20260502040205 | 3 | 328 | 3.2 | 8.0 | 0.00 | 0.00 | 0.00 | 69 | 1018.7 |
| 20260502035704 | 3 | 330 | 4.8 | 11.3 | 0.00 | 0.00 | 0.00 | 68 | 1018.7 |
| 20260502035204 | 3 | 323 | 3.2 | 8.0 | 0.00 | 0.00 | 0.00 | 68 | 1018.7 |
| 20260502034704 | 3 | 337 | 3.2 | 8.0 | 0.00 | 0.00 | 0.00 | 68 | 1018.7 |
| 20260502034205 | 3 | 17 | 1.6 | 4.8 | 0.00 | 0.00 | 0.00 | 68 | 1018.7 |
| 20260502033705 | 3 | 332 | 4.8 | 12.9 | 0.00 | 0.00 | 0.00 | 67 | 1018.7 |
| 20260502033205 | 3 | 339 | 3.2 | 9.7 | 0.00 | 0.00 | 0.00 | 67 | 1018.7 |
| 20260502032705 | 3 | 340 | 3.2 | 8.0 | 0.00 | 0.00 | 0.00 | 67 | 1018.7 |
| 20260502032206 | 3 | 296 | 3.2 | 8.0 | 0.00 | 0.00 | 0.00 | 67 | 1018.7 |
| 20260502030205 | 3 | 297 | 3.2 | 8.0 | 0.00 | 0.00 | 0.00 | 66 | 1018.6 |
| 20260502025704 | 3 | 303 | 3.2 | 9.7 | 0.00 | 0.00 | 0.00 | 65 | 1018.6 |
| 20260502025205 | 3 | 291 | 4.8 | 9.7 | 0.00 | 0.00 | 0.00 | 65 | 1018.6 |
| 20260502024704 | 3 | 317 | 4.8 | 11.3 | 0.00 | 0.00 | 0.00 | 64 | 1018.5 |
| 20260502023205 | 3 | 300 | 6.4 | 11.3 | 0.00 | 0.00 | 0.00 | 62 | 1018.4 |
| 20260502022204 | 3 | 309 | 3.2 | 14.5 | 0.00 | 0.00 | 0.00 | 61 | 1018.4 |
| 20260502021704 | 3 | 309 | 4.8 | 11.3 | 0.00 | 0.00 | 0.00 | 60 | 1018.4 |
| 20260502021204 | 3 | 312 | 4.8 | 11.3 | 0.00 | 0.00 | 0.00 | 60 | 1018.4 |
| 20260502020704 | 3 | 318 | 6.4 | 11.3 | 0.00 | 0.00 | 0.00 | 59 | 1018.3 |
| 20260502020204 | 3 | 308 | 4.8 | 11.3 | 0.00 | 0.00 | 0.00 | 60 | 1018.3 |
| 20260502015704 | 4 | 315 | 4.8 | 9.7 | 0.00 | 0.00 | 0.00 | 59 | 1018.3 |
| 20260502015204 | 4 | 298 | 4.8 | 16.1 | 0.00 | 0.00 | 0.00 | 59 | 1018.2 |
| 20260502014204 | 4 | 300 | 8.0 | 14.5 | 0.00 | 0.00 | 0.00 | 58 | 1018.1 |
| 20260502013704 | 4 | 324 | 4.8 | 11.3 | 0.00 | 0.00 | 0.00 | 58 | 1018.1 |
| 20260502013205 | 4 | 304 | 6.4 | 11.3 | 0.00 | 0.00 | 0.00 | 58 | 1018.0 |
| 20260502012704 | 4 | 338 | 4.8 | 12.9 | 0.00 | 0.00 | 0.00 | 57 | 1018.0 |
| 20260502012204 | 5 | 314 | 4.8 | 16.1 | 0.00 | 0.00 | 0.00 | 57 | 1017.9 |
| 20260502011704 | 5 | 313 | 11.3 | 16.1 | 0.00 | 0.00 | 0.00 | 57 | 1017.9 |
| 20260502011204 | 5 | 300 | 8.0 | 19.3 | 0.00 | 0.00 | 0.00 | 58 | 1017.8 |
| 20260502010704 | 5 | 304 | 8.0 | 16.1 | 0.00 | 0.00 | 0.00 | 58 | 1017.8 |